User: anonymous   Login
Location: Oshawa
(43.9000°N, 78.8670°W)
Time: 00:50:59
(UTC-05:00)
Language:

Envisat - Orbit

View from above orbital plane
View from above orbital plane
View from above satellite
View from above satellite

Ground track
Ground track

The orbit data is extracted from the following two-line orbital elements,

1 27386U 02009A   17017.73118444  .00000001  00000-0  14192-4 0  9997
2 27386  98.2534  69.1232 0001151  80.8331 279.2977 14.37886448779451
Epoch (UTC): 17 January 2017 17:32:54
Eccentricity: 0.0001151
inclination: 98.2534°
perigee height: 764 km
apogee height: 766 km
right ascension of ascending node: 69.1232°
argument of perigee: 80.8331°
revolutions per day: 14.37886448
mean anomaly at epoch: 279.2977°
orbit number at epoch: 77945

The dashed part of the orbit path shows where the satellite is in the earth's shadow,  

DLR